Location: Arbon
(43.0005°N, 0.7472°E)
Time: 10:53:22
(UTC+00:00)

Cosmos 1140 Rocket - Pass Details

Date: 22 April 2026
Orbit: 740 x 761 km, 74.1° (Epoch: 14 May)

Event Time Altitude Azimuth Distance (km) Brightness Sun altitude
Rises 21:04:42 0° 342° (NNW) 3,199 7.8 -22.2°
Reaches altitude 10° 21:07:06 10° 345° (NNW) 2,268 6.7 -22.5°
Maximum altitude 21:12:12 65° 68° (ENE) 817 3.4 -23.2°
Enters shadow 21:12:47 60° 105° (ESE) 852 3.4 -23.3°
